COSMOS 2251 DEB, 40796

Orbit data source: Space-Track

COSMOS 2251 DEB, 40796 is space debris in LEO originally from a launch on Wed, 16 Jun 1993 UTC launched from the Plesetsk Missile And Space Complex (PKMTR). The debris from Iridium 33, an American commercial communications satellite, has been tracked extensively since its accidental collision with the defunct Russian satellite Cosmos 2251 in 2009. This event, occurring at high speed in low Earth orbit (LEO), generated thousands of pieces of space debris, significantly increasing the risk of further collisions. The Iridium 33 debris cloud has impacted space traffic management and orbital debris mitigation strategies, making it a subject of ongoing study in space situational awareness.

Loading next visibility...
Identifier
40796, 1993-036BVZ
Orbit
LEO
Country
Flag of CISCIS
Related business
Manufacturer
Unknown
Mission
Spacecraft
Bus & Motor
Unknown
Mass
Unknown
Launch date (UTC)
1993-06-16 (33 years ago)
Launch vehicle
Unknown
Launch site
Plesetsk Missile And Space Complex (PKMTR)
Object type
Payload
Rocket body
Debris
Shape & HBR
Unknown shape, 0.1 m
Radar Cross Section
Small (<0.1 m²)

Expand to show TLE details & history
Last TLE update: 1 week ago

TLE from 1 week ago
0 COSMOS 2251 DEB
1 40796U 93036BVZ 26229.17807821  .00003683  00000-0  42996-3 0  9995
2 40796  74.0131  11.4501 0052264  84.6191  89.7514 14.84563328798275
Epoch: 2026-08-17T04:16Z
TLE epoch observation values (Epoch: 2026-08-17T04:16:25.957Z)
Latitude
4.75235°
Longitude
160.42058°
Altitude
617.166 km
Speed
7.551 km/s
True Right ascension
12h 40m 22s
True Declination
4° 43' 25"
Sunlit
Object was in daylight at epoch
Visualization orbit readout
Latitude
Unknown
Longitude
Unknown
Altitude
Unknown
Speed
Unknown
Apparent Right ascension
Unknown
Apparent Declination
Unknown
Sunlit
N/A
Visualization observer readout
Local Sidereal Time
10:21:15
Azimuth
Unknown
Elevation
Unknown
Doppler factor
Unknown
Orbital elements
Apogee altitude
649.065 km
Perigee altitude
575.993 km
Semi-major axis
6,990.666 km
Eccentricity
0.00523
Inclination
74.0131°
RAAN
11.4501°
Arg. of periapsis
84.6191°
True anomaly
90.3503°
Mean anomaly
89.7514°
Eccentric anomaly
90.05085°
Mean motion
3.71335 °/min
Orbital period
96.95 mins
BSTAR
0.00042996
Loading maneuver chart data...
Computing Atmospheric mass density...

Documentation

Showing up to 5 results
|